This is the latest recevied weather packets stored in our database for station/object OK2ILA-10. If no packets are shown the sender has not sent any weather packets the latest 10 day(s).
| Time | Temp. | Humidity | Pressure | Rain* | Wind** | Luminosity | Snow |
|---|---|---|---|---|---|---|---|
| 1787996504 | 24.44° C | 54% | 1017.8 hPa | - | - | - | - |
| 1787995908 | 23.89° C | 55% | 1017.7 hPa | - | - | - | - |
| 1787995904 | 23.89° C | 55% | 1017.7 hPa | - | - | - | - |
| 1787995308 | 23.89° C | 55% | 1017.6 hPa | - | - | - | - |
| 1787995304 | 23.89° C | 55% | 1017.6 hPa | - | - | - | - |
| 1787994707 | 24.44° C | 54% | 1017.4 hPa | - | - | - | - |
| 1787994704 | 24.44° C | 54% | 1017.4 hPa | - | - | - | - |
| 1787994107 | 24.44° C | 54% | 1017.4 hPa | - | - | - | - |
| 1787994105 | 24.44° C | 54% | 1017.4 hPa | - | - | - | - |
| 1787993507 | 26.11° C | 52% | 1017.5 hPa | - | - | - | - |
| 1787993504 | 26.11° C | 52% | 1017.5 hPa | - | - | - | - |
| 1787992907 | 26.11° C | 51% | 1017.5 hPa | - | - | - | - |
| 1787992903 | 26.11° C | 51% | 1017.5 hPa | - | - | - | - |
| 1787992307 | 27.22° C | 50% | 1017.5 hPa | - | - | - | - |
| 1787992303 | 27.22° C | 50% | 1017.5 hPa | - | - | - | - |
| 1787991707 | 26.67° C | 50% | 1017.6 hPa | - | - | - | - |
| 1787991703 | 26.67° C | 50% | 1017.6 hPa | - | - | - | - |
| 1787991102 | 26.11° C | 50% | 1017.5 hPa | - | - | - | - |
| 1787990506 | 27.22° C | 49% | 1017.4 hPa | - | - | - | - |
| 1787990502 | 27.22° C | 49% | 1017.4 hPa | - | - | - | - |
| 1787989902 | 26.11° C | 51% | 1017.2 hPa | - | - | - | - |
| 1787989315 | 26.11° C | 51% | 1017 hPa | - | - | - | - |
| 1787989302 | 26.11° C | 51% | 1017 hPa | - | - | - | - |
| 1787988702 | 26.11° C | 53% | 1017 hPa | - | - | - | - |
| 1787988101 | 26.11° C | 54% | 1017 hPa | - | - | - | - |
* Rain since midnight (hover to see other rain measurements)
** Current wind speed in m/s (hover to see current wind gust speed)